GW2280 Weather Reports


Display with metric or nautical units.
time (UTC)temp
F
wind
direction
speed
MPH
gust
MPH
rain 1hr
in
rain 24hr
in
rain mn
in
humidity
%
barometer
mb
20260906150518 62 32 5.0 14.0 0.00 0.09 0.04 68 1018.1
20260906150037 62 32 4.0 13.0 0.00 0.09 0.04 71 1018.1
20260906145516 62 5 3.0 14.0 0.00 0.09 0.04 75 1018.1
20260906145018 62 5 4.0 17.0 0.00 0.09 0.04 76 1018.0
20260906144538 61 5 8.0 17.0 0.00 0.09 0.04 75 1018.0
20260906144016 61 49 6.0 14.0 0.00 0.09 0.04 77 1018.0
20260906143517 61 360 7.0 13.0 0.00 0.09 0.04 79 1018.0
20260906143033 60 39 6.0 14.0 0.00 0.09 0.04 82 1018.0
20260906142522 60 39 6.0 14.0 0.00 0.09 0.04 85 1018.0
20260906142021 59 352 6.0 12.0 0.00 0.09 0.04 86 1018.0
20260906141538 58 23 5.0 11.0 0.00 0.09 0.04 90 1018.0
20260906141019 57 15 5.0 12.0 0.00 0.09 0.04 91 1018.1
20260906140524 57 25 3.0 12.0 0.00 0.09 0.04 91 1018.2
20260906140038 57 0 5.0 12.0 0.00 0.09 0.04 91 1018.1
20260906135521 58 360 5.0 10.0 0.00 0.09 0.04 91 1018.1
20260906135018 58 360 3.0 10.0 0.00 0.09 0.04 91 1018.1
20260906134534 58 351 3.0 10.0 0.00 0.09 0.04 91 1018.1
20260906134019 59 352 2.0 10.0 0.00 0.09 0.04 92 1018.1
20260906133518 58 315 2.0 10.0 0.00 0.09 0.04 93 1017.9
20260906133049 58 325 3.0 10.0 0.00 0.09 0.04 94 1017.9
20260906132517 58 0 2.0 12.0 0.00 0.09 0.04 94 1017.9
20260906132017 57 88 4.0 13.0 0.00 0.09 0.04 95 1017.9
20260906131538 57 40 5.0 13.0 0.00 0.09 0.04 95 1017.9
20260906131018 56 40 0.0 7.0 0.00 0.09 0.04 96 1017.8
20260906130519 56 343 0.0 7.0 0.00 0.09 0.04 96 1017.8
20260906130037 56 0 4.0 8.0 0.00 0.09 0.04 96 1017.9
20260906125516 56 10 2.0 8.0 0.00 0.09 0.04 96 1017.8
20260906125017 56 0 2.0 8.0 0.00 0.09 0.04 96 1017.8
20260906124534 56 16 0.0 5.0 0.00 0.09 0.04 96 1017.8
20260906124018 55 41 1.0 6.0 0.00 0.09 0.04 96 1017.8
20260906123519 55 0 2.0 8.0 0.00 0.09 0.04 96 1017.9
20260906123044 55 346 2.0 8.0 0.00 0.09 0.04 96 1017.9
20260906122517 56 0 1.0 6.0 0.00 0.09 0.04 96 1017.8
20260906122020 56 0 0.0 6.0 0.00 0.09 0.04 96 1017.9
20260906121545 55 0 2.0 6.0 0.01 0.09 0.04 96 1017.8
20260906121019 55 360 1.0 6.0 0.01 0.09 0.04 96 1017.7
20260906120518 55 360 2.0 6.0 0.01 0.09 0.04 96 1017.7
20260906120035 55 33 2.0 6.0 0.01 0.09 0.04 96 1017.7
20260906115522 55 36 0.0 6.0 0.01 0.09 0.04 96 1017.7
20260906115017 55 0 1.0 7.0 0.01 0.09 0.04 96 1017.8
20260906114539 55 30 0.0 7.0 0.01 0.09 0.04 96 1017.7
20260906114019 55 0 1.0 8.0 0.01 0.09 0.04 96 1017.7
20260906113518 55 49 1.0 8.0 0.01 0.09 0.04 95 1017.7
20260906113036 55 64 3.0 8.0 0.02 0.09 0.04 95 1017.6
20260906112517 55 30 1.0 8.0 0.02 0.09 0.04 95 1017.6
20260906112020 55 42 2.0 8.0 0.02 0.09 0.04 95 1017.6
20260906111538 55 17 2.0 8.0 0.01 0.08 0.03 95 1017.6
20260906111019 55 39 3.0 11.0 0.01 0.08 0.03 95 1017.4
20260906110519 55 51 2.0 11.0 0.01 0.08 0.03 95 1017.4
20260906110036 55 38 3.0 10.0 0.01 0.08 0.03 95 1017.2
20260906105517 55 48 3.0 10.0 0.01 0.08 0.03 95 1017.2
20260906105018 55 47 2.0 10.0 0.01 0.08 0.03 95 1017.1
20260906104536 55 0 2.0 12.0 0.01 0.08 0.03 95 1017.1
20260906104016 55 44 3.0 12.0 0.01 0.08 0.03 94 1017.1
20260906103521 55 49 4.0 12.0 0.00 0.07 0.02 94 1017.0
20260906103038 55 9 3.0 10.0 0.00 0.07 0.02 94 1017.0
20260906102520 55 40 4.0 10.0 0.00 0.07 0.02 94 1017.0
20260906102018 55 28 1.0 8.0 0.00 0.07 0.02 94 1016.9
20260906101535 55 5 2.0 8.0 0.00 0.07 0.02 94 1017.1
20260906101019 55 17 3.0 8.0 0.00 0.07 0.02 94 1017.0
20260906100519 55 17 3.0 8.0 0.00 0.07 0.02 94 1017.0
20260906100041 55 13 2.0 7.0 0.00 0.07 0.02 94 1017.0
20260906095516 55 5 3.0 7.0 0.00 0.07 0.02 94 1017.0
20260906095016 55 15 2.0 5.0 0.00 0.07 0.02 94 1016.8
20260906094534 55 24 1.0 5.0 0.00 0.07 0.02 94 1016.8
20260906094017 55 352 1.0 5.0 0.00 0.07 0.02 94 1016.9
20260906093519 55 0 2.0 5.0 0.00 0.07 0.02 94 1016.8
20260906093056 55 28 1.0 5.0 0.00 0.07 0.02 94 1016.7
20260906092517 55 360 2.0 5.0 0.00 0.07 0.02 93 1016.6
20260906092023 55 360 2.0 5.0 0.00 0.07 0.02 93 1016.5
20260906091535 55 0 1.0 5.0 0.00 0.07 0.02 93 1016.5
20260906091018 55 360 1.0 4.0 0.00 0.07 0.02 93 1016.4
20260906090518 55 360 1.0 4.0 0.00 0.07 0.02 94 1016.4
20260906090038 55 9 1.0 4.0 0.00 0.07 0.02 93 1016.4
20260906085517 55 0 1.0 4.0 0.00 0.07 0.02 93 1016.4
20260906085017 55 360 1.0 4.0 0.00 0.07 0.02 93 1016.4
20260906084539 55 351 1.0 4.0 0.00 0.07 0.02 93 1016.4
20260906084017 55 0 1.0 3.0 0.00 0.07 0.02 93 1016.4
20260906083519 55 9 1.0 3.0 0.00 0.07 0.02 93 1016.4
20260906083037 55 14 1.0 3.0 0.00 0.07 0.02 93 1016.4
20260906082518 55 0 0.0 3.0 0.01 0.07 0.02 93 1016.5
20260906082021 55 38 0.0 2.0 0.02 0.07 0.02 92 1016.4
20260906081549 55 0 0.0 2.0 0.02 0.07 0.02 92 1016.4
20260906081019 55 0 0.0 3.0 0.02 0.07 0.02 92 1016.3
20260906080517 55 0 0.0 3.0 0.02 0.07 0.02 92 1016.3
20260906080039 55 0 0.0 3.0 0.02 0.07 0.02 91 1016.3
20260906075519 55 51 0.0 4.0 0.02 0.07 0.02 90 1016.3
20260906075017 56 0 0.0 4.0 0.02 0.07 0.02 90 1016.2
20260906074535 56 53 0.0 6.0 0.02 0.07 0.02 90 1016.2
20260906074016 56 360 2.0 6.0 0.02 0.07 0.02 89 1016.2
20260906073517 56 0 2.0 6.0 0.02 0.07 0.02 88 1016.3
20260906073049 57 0 1.0 6.0 0.02 0.07 0.02 87 1016.3
20260906072518 57 0 0.0 11.0 0.01 0.06 0.01 86 1016.2
20260906072018 57 47 1.0 11.0 0.00 0.05 0.00 85 1016.1
20260906071537 57 75 3.0 9.0 0.00 0.05 0.00 84 1015.9
20260906071019 57 51 3.0 10.0 0.00 0.05 0.00 83 1016.1
20260906070518 57 45 2.0 10.0 0.00 0.05 0.00 83 1016.2
20260906070040 57 49 2.0 8.0 0.00 0.05 0.00 83 1016.3
20260906065519 57 40 1.0 8.0 0.00 0.05 0.00 83 1016.3
20260906065019 57 0 1.0 8.0 0.00 0.05 0.00 83 1016.3
20260906064536 57 58 1.0 7.0 0.00 0.05 0.00 83 1016.2
20260906064016 57 0 2.0 8.0 0.00 0.05 0.00 83 1016.1
20260906063520 57 100 1.0 10.0 0.00 0.05 0.00 83 1016.1
20260906063039 57 132 2.0 12.0 0.00 0.05 0.00 83 1016.0
20260906062517 57 59 3.0 12.0 0.00 0.05 0.00 83 1016.0
20260906062021 57 96 3.0 12.0 0.00 0.05 0.00 84 1016.0
20260906061535 57 79 2.0 9.0 0.00 0.05 0.00 84 1016.0
20260906061019 57 49 2.0 9.0 0.00 0.05 0.00 83 1015.9
20260906060519 57 60 2.0 7.0 0.00 0.05 0.00 83 1016.0
20260906060037 57 78 1.0 9.0 0.00 0.05 0.00 83 1016.1
20260906055520 57 0 2.0 9.0 0.00 0.05 0.00 83 1016.2
20260906055018 57 52 2.0 9.0 0.00 0.05 0.00 82 1016.1
20260906054534 57 0 2.0 8.0 0.00 0.05 0.00 82 1016.1
20260906054017 57 0 2.0 11.0 0.00 0.05 0.00 82 1016.1
20260906053517 57 40 2.0 11.0 0.00 0.05 0.00 82 1016.1
20260906053038 57 0 3.0 14.0 0.00 0.05 0.00 82 1016.1
20260906052517 57 96 4.0 14.0 0.00 0.05 0.00 82 1016.2
20260906052018 57 86 6.0 14.0 0.00 0.05 0.00 82 1016.1
20260906051535 57 78 4.0 10.0 0.00 0.05 0.00 82 1016.1
20260906051019 57 78 3.0 10.0 0.00 0.05 0.00 82 1016.2
20260906050517 57 38 3.0 12.0 0.00 0.05 0.00 82 1016.2
20260906050040 57 51 3.0 12.0 0.00 0.05 0.00 82 1016.2
20260906045519 58 61 4.0 12.0 0.00 0.05 0.00 82 1016.3
20260906045016 58 44 3.0 12.0 0.00 0.05 0.00 82 1016.2
20260906044536 58 46 2.0 12.0 0.00 0.05 0.00 82 1016.3
20260906044017 58 61 2.0 13.0 0.00 0.05 0.00 82 1016.2
20260906043516 58 0 2.0 13.0 0.00 0.05 0.00 81 1016.0
20260906043044 58 74 3.0 13.0 0.00 0.05 0.00 81 1016.0
20260906042521 58 84 3.0 13.0 0.00 0.05 0.00 81 1016.0
20260906042020 58 61 4.0 13.0 0.00 0.05 0.00 80 1016.1
20260906041535 59 32 2.0 12.0 0.00 0.05 0.00 80 1016.1
20260906041020 59 65 4.0 14.0 0.00 0.05 0.00 80 1016.1
20260906040519 59 0 4.0 16.0 0.00 0.05 0.00 79 1016.1
20260906040045 59 90 5.0 16.0 0.00 0.05 0.00 79 1016.1
20260906035516 59 360 5.0 11.0 0.00 0.05 0.05 79 1016.1
20260906035019 59 360 2.0 17.0 0.00 0.05 0.05 79 1016.0
20260906034536 59 67 5.0 17.0 0.00 0.05 0.05 78 1016.0
20260906034017 60 92 4.0 17.0 0.00 0.05 0.05 79 1015.9
20260906033517 60 0 2.0 16.0 0.00 0.05 0.05 78 1016.0
20260906033034 60 67 7.0 16.0 0.00 0.05 0.05 78 1015.9
20260906032520 60 63 6.0 15.0 0.00 0.05 0.05 78 1015.9
20260906032019 60 46 4.0 16.0 0.00 0.05 0.05 78 1015.9
20260906031533 60 360 8.0 16.0 0.00 0.05 0.05 78 1015.9
20260906031019 60 35 5.0 14.0 0.00 0.05 0.05 79 1015.9
20260906030518 60 74 5.0 12.0 0.00 0.05 0.05 79 1015.9
20260906030040 60 360 4.0 12.0 0.00 0.05 0.05 79 1015.9
20260906025521 60 0 3.0 12.0 0.00 0.05 0.05 79 1015.9
20260906025021 60 0 3.0 12.0 0.00 0.05 0.05 79 1015.9
20260906024539 60 63 3.0 12.0 0.00 0.05 0.05 79 1015.9
20260906024017 60 40 2.0 12.0 0.00 0.05 0.05 79 1015.9
20260906023521 60 43 3.0 12.0 0.00 0.05 0.05 79 1015.8
20260906023049 61 92 3.0 15.0 0.00 0.05 0.05 79 1015.8
20260906022518 61 360 3.0 15.0 0.00 0.05 0.05 79 1015.7
20260906022020 61 360 4.0 13.0 0.00 0.05 0.05 79 1015.7
20260906021536 61 360 3.0 13.0 0.00 0.05 0.05 79 1015.7
20260906021017 61 360 4.0 13.0 0.00 0.05 0.05 79 1015.7
20260906020517 61 360 3.0 13.0 0.00 0.05 0.05 79 1015.6
20260906020039 62 360 4.0 13.0 0.00 0.05 0.05 79 1015.6
20260906015519 62 360 2.0 12.0 0.00 0.05 0.05 79 1015.6
20260906015019 62 360 2.0 10.0 0.00 0.05 0.05 79 1015.6
20260906014549 62 360 3.0 13.0 0.00 0.05 0.05 79 1015.6
20260906014019 62 360 4.0 13.0 0.00 0.05 0.05 79 1015.6
20260906013517 62 360 3.0 9.0 0.00 0.05 0.05 80 1015.7
20260906013040 62 0 1.0 9.0 0.00 0.05 0.05 80 1015.8
20260906012522 63 360 2.0 9.0 0.00 0.05 0.05 80 1015.7
20260906012018 63 360 2.0 9.0 0.00 0.05 0.05 80 1015.7
20260906011550 63 0 2.0 12.0 0.00 0.05 0.05 80 1015.7
20260906011020 63 360 3.0 12.0 0.00 0.05 0.05 80 1015.7
20260906010517 62 0 1.0 12.0 0.00 0.05 0.05 80 1015.7
20260906010039 62 360 4.0 11.0 0.00 0.05 0.05 81 1015.7
20260906005520 62 360 2.0 10.0 0.00 0.05 0.05 81 1015.7
20260906005021 62 360 3.0 10.0 0.00 0.05 0.05 81 1015.6
20260906004540 63 360 1.0 10.0 0.00 0.05 0.05 81 1015.7
20260906004026 63 360 2.0 10.0 0.00 0.05 0.05 81 1015.6
20260906003520 63 360 4.0 10.0 0.00 0.05 0.05 80 1015.6
20260906003034 63 360 2.0 12.0 0.00 0.05 0.05 80 1015.4
20260906002517 63 360 4.0 12.0 0.00 0.05 0.05 80 1015.4
20260906002018 63 0 4.0 9.0 0.00 0.05 0.05 80 1015.4
20260906001536 63 360 2.0 11.0 0.00 0.05 0.05 80 1015.3
20260906001020 63 0 4.0 11.0 0.00 0.05 0.05 80 1015.2
20260906000520 63 360 2.0 9.0 0.00 0.05 0.05 80 1015.1
20260906000038 63 0 3.0 9.0 0.00 0.05 0.05 80 1015.2
20260905235519 63 360 2.0 6.0 0.00 0.05 0.05 80 1015.2
20260905235018 63 360 1.0 8.0 0.00 0.05 0.05 80 1015.2
20260905234547 63 360 1.0 8.0 0.00 0.05 0.05 79 1015.2
20260905234017 63 360 1.0 6.0 0.00 0.05 0.05 79 1015.2
20260905233518 64 0 1.0 6.0 0.00 0.05 0.05 78 1015.1
20260905233040 64 360 1.0 6.0 0.00 0.05 0.05 78 1015.0
20260905232518 64 0 2.0 6.0 0.00 0.05 0.05 78 1015.0
20260905232020 64 360 0.0 8.0 0.00 0.05 0.05 78 1014.9
20260905231537 64 360 3.0 9.0 0.00 0.05 0.05 77 1014.9
20260905231017 65 360 2.0 9.0 0.00 0.05 0.05 77 1014.9
20260905230517 65 360 3.0 9.0 0.00 0.05 0.05 77 1014.9
20260905230042 65 360 1.0 10.0 0.00 0.05 0.05 76 1014.8
20260905225519 65 360 0.0 10.0 0.00 0.05 0.05 76 1014.8
20260905225018 65 360 2.0 10.0 0.00 0.05 0.05 77 1014.9
20260905224539 65 360 2.0 9.0 0.00 0.05 0.05 77 1014.8
20260905224017 65 0 2.0 6.0 0.00 0.05 0.05 77 1014.8
20260905223519 65 0 2.0 5.0 0.00 0.05 0.05 78 1014.7
20260905223038 66 360 0.0 5.0 0.00 0.05 0.05 78 1014.7
20260905222521 66 360 2.0 10.0 0.00 0.05 0.05 77 1014.7
20260905222019 66 0 2.0 10.0 0.00 0.05 0.05 76 1014.6
20260905221541 66 0 1.0 10.0 0.00 0.05 0.05 76 1014.5
20260905221019 66 360 3.0 10.0 0.00 0.05 0.05 75 1014.5
20260905220520 66 0 0.0 8.0 0.00 0.05 0.05 76 1014.5
20260905220037 66 0 2.0 8.0 0.00 0.05 0.05 75 1014.4
20260905215518 66 360 1.0 6.0 0.00 0.05 0.05 76 1014.4
20260905215019 66 360 2.0 8.0 0.00 0.05 0.05 75 1014.3
20260905214538 67 0 2.0 10.0 0.00 0.05 0.05 75 1014.2
20260905214020 67 0 0.0 10.0 0.00 0.05 0.05 76 1014.2
20260905213523 67 0 3.0 9.0 0.00 0.05 0.05 74 1014.1
20260905213035 67 360 1.0 9.0 0.00 0.05 0.05 75 1014.1
20260905212521 67 0 2.0 11.0 0.00 0.05 0.05 74 1014.0
20260905212019 67 360 2.0 13.0 0.00 0.05 0.05 74 1014.0
20260905211537 67 360 6.0 13.0 0.00 0.05 0.05 73 1013.9
20260905211023 67 360 3.0 11.0 0.00 0.05 0.05 74 1013.8
20260905210520 67 360 4.0 11.0 0.00 0.05 0.05 74 1013.8
20260905210037 67 360 3.0 11.0 0.00 0.05 0.05 74 1013.8
20260905205521 67 360 4.0 11.0 0.00 0.05 0.05 74 1013.7
20260905205021 67 360 4.0 11.0 0.00 0.05 0.05 73 1013.7
20260905204538 67 360 5.0 11.0 0.00 0.05 0.05 73 1013.7
20260905204023 67 360 4.0 10.0 0.00 0.05 0.05 73 1013.8
20260905203519 67 360 1.0 10.0 0.00 0.05 0.05 73 1013.8
20260905203036 67 360 4.0 12.0 0.00 0.05 0.05 73 1013.7
20260905202519 67 360 4.0 15.0 0.00 0.05 0.05 73 1013.7
20260905202019 67 360 6.0 15.0 0.00 0.05 0.05 73 1013.7
20260905201537 68 100 4.0 17.0 0.00 0.05 0.05 74 1013.6
20260905201019 68 0 6.0 17.0 0.00 0.05 0.05 73 1013.6
20260905200521 68 0 5.0 13.0 0.00 0.05 0.05 73 1013.5
20260905200045 68 78 4.0 12.0 0.00 0.05 0.05 74 1013.5
20260905195520 67 360 3.0 16.0 0.00 0.05 0.05 74 1013.5
20260905195018 67 360 5.0 16.0 0.00 0.05 0.05 74 1013.6
20260905194536 67 360 7.0 16.0 0.00 0.05 0.05 74 1013.5
20260905194020 67 0 5.0 11.0 0.00 0.05 0.05 77 1013.5
20260905193521 67 360 2.0 11.0 0.00 0.05 0.05 78 1013.6
20260905193035 67 360 5.0 11.0 0.00 0.05 0.05 79 1013.6
20260905192521 67 360 3.0 10.0 0.00 0.05 0.05 80 1013.6
20260905192023 66 360 2.0 12.0 0.00 0.05 0.05 80 1013.6
20260905191538 66 360 3.0 12.0 0.00 0.05 0.05 81 1013.5
20260905191017 66 360 3.0 9.0 0.00 0.05 0.05 81 1013.6
20260905190518 66 360 3.0 11.0 0.00 0.05 0.05 85 1013.6
20260905190048 65 360 2.0 11.0 0.00 0.05 0.05 83 1013.6
20260905185517 65 360 4.0 14.0 0.00 0.05 0.05 83 1013.5
20260905185016 65 0 5.0 14.0 0.00 0.05 0.05 84 1013.5
20260905184553 65 360 2.0 11.0 0.00 0.05 0.05 86 1013.4
20260905184019 65 360 3.0 10.0 0.00 0.05 0.05 86 1013.5
20260905183522 64 360 3.0 11.0 0.00 0.05 0.05 86 1013.4
20260905183045 64 0 2.0 12.0 0.01 0.05 0.05 87 1013.5
20260905182518 64 360 4.0 14.0 0.04 0.05 0.05 86 1013.5
20260905182018 65 360 6.0 14.0 0.04 0.05 0.05 87 1013.5
20260905181537 65 0 1.0 12.0 0.04 0.05 0.05 89 1013.5
20260905181018 65 360 4.0 12.0 0.04 0.05 0.05 88 1013.5
20260905180517 65 360 2.0 10.0 0.05 0.05 0.05 90 1013.4
20260905180035 64 360 2.0 11.0 0.05 0.05 0.05 90 1013.4
20260905175522 64 360 4.0 11.0 0.05 0.05 0.05 92 1013.5
20260905175017 64 360 4.0 9.0 0.05 0.05 0.05 91 1013.4
20260905174535 63 360 1.0 12.0 0.05 0.05 0.05 92 1013.4
20260905174020 63 0 0.0 13.0 0.05 0.05 0.05 91 1013.5
20260905173519 64 360 4.0 13.0 0.05 0.05 0.05 90 1013.5
20260905173038 64 360 6.0 13.0 0.04 0.04 0.04 89 1013.4
20260905172519 64 360 2.0 10.0 0.01 0.01 0.01 90 1013.3
20260905172020 63 360 1.0 10.0 0.01 0.01 0.01 91 1013.4
20260905171536 63 360 3.0 13.0 0.01 0.01 0.01 90 1013.5
20260905171019 63 360 5.0 15.0 0.01 0.01 0.01 89 1013.5
20260905170518 64 360 6.0 15.0 0.00 0.00 0.00 87 1013.4
20260905170035 64 360 5.0 13.0 0.00 0.00 0.00 85 1013.5
20260905165517 65 360 2.0 17.0 0.00 0.00 0.00 84 1013.4
20260905165016 66 360 6.0 17.0 0.00 0.00 0.00 82 1013.3
20260905164539 67 360 8.0 17.0 0.00 0.00 0.00 78 1013.3
20260905164020 68 360 5.0 13.0 0.00 0.00 0.00 76 1013.2
20260905163519 68 0 6.0 13.0 0.00 0.00 0.00 77 1013.3
20260905163038 68 360 7.0 12.0 0.00 0.00 0.00 77 1013.3
20260905162521 67 360 3.0 11.0 0.00 0.00 0.00 79 1013.4
20260905162019 67 360 5.0 10.0 0.00 0.00 0.00 77 1013.5
20260905161537 67 360 1.0 9.0 0.00 0.00 0.00 79 1013.6
20260905161016 66 0 3.0 14.0 0.00 0.00 0.00 79 1013.6
20260905160518 66 360 5.0 14.0 0.00 0.00 0.00 80 1013.5
20260905160035 66 360 7.0 14.0 0.00 0.00 0.00 81 1013.5
20260905155518 65 360 3.0 12.0 0.00 0.00 0.00 82 1013.5
20260905155017 65 360 7.0 12.0 0.00 0.00 0.00 82 1013.6
20260905154539 65 43 5.0 11.0 0.00 0.00 0.00 82 1013.7
20260905154022 65 360 5.0 12.0 0.00 0.00 0.00 83 1013.6
20260905153520 65 350 6.0 12.0 0.00 0.00 0.00 82 1013.6
20260905153050 65 360 0.0 10.0 0.00 0.00 0.00 85 1013.6
20260905152520 64 38 3.0 10.0 0.00 0.00 0.00 85 1013.6
20260905152019 64 22 3.0 10.0 0.00 0.00 0.00 87 1013.5
20260905151540 63 31 4.0 10.0 0.00 0.00 0.00 88 1013.5
20260905151016 63 34 5.0 11.0 0.00 0.00 0.00 89 1013.5